�������l�o���
Date,Time,MP-1(��Sv/h),MP-2(��Sv/h),MP-3(��Sv/h),MP-4(��Sv/h),MP-5(��Sv/h),MP-6(��Sv/h),MP-7(��Sv/h),����,����(m/s),���J
2024/04/13,00:00,0.144,0.125,0.204,0.191,0.202,0.113,0.074,�k�k��,4.3,��
2024/04/13,00:10,0.143,0.125,0.203,0.192,0.205,0.112,0.074,�k�k��,4.5,��
2024/04/13,00:20,0.144,0.124,0.205,0.192,0.203,0.113,0.074,�k�k��,4.4,��
2024/04/13,00:30,0.144,0.124,0.205,0.191,0.203,0.113,0.074,�k�k��,4.0,��
2024/04/13,00:40,0.144,0.124,0.204,0.191,0.204,0.113,0.074,�k�k��,4.8,��
2024/04/13,00:50,0.144,0.125,0.204,0.190,0.203,0.113,0.075,�k�k��,4.8,��
2024/04/13,01:00,0.144,0.124,0.205,0.191,0.203,0.113,0.074,�k�k��,5.0,��
2024/04/13,01:10,0.144,0.124,0.205,0.191,0.204,0.114,0.075,�k�k��,5.8,��
2024/04/13,01:20,0.144,0.125,0.204,0.192,0.204,0.113,0.075,�k�k��,5.8,��
2024/04/13,01:30,0.144,0.124,0.206,0.191,0.204,0.113,0.074,�k�k��,5.4,��
2024/04/13,01:40,0.145,0.124,0.205,0.191,0.204,0.113,0.075,�k�k��,5.9,��
2024/04/13,01:50,0.144,0.125,0.205,0.192,0.203,0.113,0.074,�k�k��,6.1,��
2024/04/13,02:00,0.143,0.124,0.205,0.191,0.203,0.114,0.074,�k�k��,5.7,��
2024/04/13,02:10,0.144,0.124,0.204,0.192,0.202,0.113,0.074,�k�k��,6.2,��
2024/04/13,02:20,0.144,0.125,0.204,0.190,0.204,0.114,0.075,�k�k��,6.4,��
2024/04/13,02:30,0.143,0.124,0.204,0.191,0.204,0.113,0.074,�k�k��,6.4,��
2024/04/13,02:40,0.144,0.125,0.204,0.191,0.203,0.112,0.075,�k�k��,6.5,��
2024/04/13,02:50,0.143,0.124,0.205,0.191,0.203,0.113,0.074,�k��,6.7,��
2024/04/13,03:00,0.144,0.124,0.205,0.191,0.201,0.113,0.075,�k��,6.5,��
2024/04/13,03:10,0.143,0.125,0.205,0.190,0.202,0.112,0.074,�k��,6.2,��
2024/04/13,03:20,0.144,0.124,0.205,0.192,0.205,0.113,0.074,�k��,6.5,��
2024/04/13,03:30,0.144,0.124,0.205,0.191,0.203,0.113,0.074,�k�k��,6.5,��
2024/04/13,03:40,0.143,0.124,0.205,0.190,0.202,0.113,0.074,�k��,6.8,��
2024/04/13,03:50,0.144,0.125,0.204,0.191,0.203,0.113,0.075,�k��,7.7,��
2024/04/13,04:00,0.144,0.125,0.204,0.191,0.204,0.113,0.074,�k��,7.3,��
2024/04/13,04:10,0.144,0.124,0.204,0.191,0.204,0.113,0.074,�k��,7.5,��
2024/04/13,04:20,0.144,0.124,0.205,0.191,0.203,0.113,0.074,�k�k��,7.6,��
2024/04/13,04:30,0.144,0.124,0.204,0.191,0.202,0.113,0.075,�k�k��,7.9,��
2024/04/13,04:40,0.144,0.124,0.203,0.191,0.204,0.113,0.074,�k��,7.4,��
2024/04/13,04:50,0.144,0.124,0.205,0.190,0.202,0.112,0.074,�k�k��,6.9,��
2024/04/13,05:00,0.144,0.125,0.204,0.191,0.203,0.113,0.074,�k�k��,6.8,��
2024/04/13,05:10,0.143,0.125,0.203,0.191,0.204,0.112,0.074,�k�k��,6.7,��
2024/04/13,05:20,0.144,0.124,0.205,0.190,0.204,0.113,0.074,�k�k��,6.3,��
2024/04/13,05:30,0.143,0.125,0.205,0.191,0.204,0.113,0.073,�k�k��,6.4,��
2024/04/13,05:40,0.144,0.125,0.203,0.191,0.203,0.112,0.074,�k�k��,6.6,��
2024/04/13,05:50,0.144,0.124,0.205,0.191,0.204,0.113,0.074,�k�k��,7.0,��
2024/04/13,06:00,0.144,0.125,0.205,0.190,0.204,0.114,0.074,�k�k��,7.3,��
2024/04/13,06:10,0.144,0.124,0.205,0.190,0.201,0.113,0.074,�k�k��,7.0,��
2024/04/13,06:20,0.144,0.124,0.204,0.191,0.203,0.113,0.074,�k�k��,6.9,��
2024/04/13,06:30,0.144,0.125,0.204,0.191,0.203,0.114,0.074,�k�k��,6.8,��
2024/04/13,06:40,0.144,0.125,0.204,0.191,0.203,0.114,0.074,�k�k��,6.9,��
2024/04/13,06:50,0.144,0.124,0.205,0.190,0.203,0.113,0.074,�k�k��,6.9,��
2024/04/13,07:00,0.143,0.125,0.203,0.191,0.202,0.113,0.074,�k�k��,6.2,��
2024/04/13,07:10,0.144,0.125,0.205,0.191,0.204,0.113,0.074,�k�k��,5.8,��
2024/04/13,07:20,0.143,0.124,0.202,0.189,0.202,0.113,0.073,�k�k��,5.5,��
2024/04/13,07:30,0.144,0.125,0.203,0.192,0.204,0.113,0.074,�k�k��,6.0,��
2024/04/13,07:40,0.144,0.123,0.202,0.190,0.203,0.113,0.073,�k�k��,4.0,��
2024/04/13,07:50,0.143,0.125,0.204,0.190,0.204,0.112,0.074,�k�k��,4.6,��
2024/04/13,08:00,0.145,0.124,0.203,0.189,0.204,0.113,0.074,�k�k��,3.9,��
2024/04/13,08:10,0.143,0.125,0.202,0.190,0.202,0.113,0.074,�k�k��,4.0,��
2024/04/13,08:20,0.143,0.124,0.204,0.189,0.204,0.113,0.074,�k,4.3,��
2024/04/13,08:30,0.144,0.125,0.203,0.189,0.203,0.112,0.073,�k,3.7,��
2024/04/13,08:40,0.143,0.125,0.202,0.191,0.203,0.113,0.075,�k,4.0,��
2024/04/13,08:50,0.143,0.125,0.203,0.190,0.203,0.113,0.074,�k,4.5,��
2024/04/13,09:00,0.143,0.125,0.204,0.189,0.202,0.113,0.074,�k,4.7,��
2024/04/13,09:10,0.143,0.123,0.201,0.190,0.204,0.114,0.074,�k�k��,3.9,��
2024/04/13,09:20,0.144,0.125,0.202,0.189,0.202,0.112,0.074,�k,2.9,��
2024/04/13,09:30,0.143,0.125,0.203,0.188,0.203,0.113,0.074,�k,4.6,��
2024/04/13,09:40,0.143,0.123,0.204,0.191,0.202,0.113,0.074,�k,4.2,��
2024/04/13,09:50,0.144,0.124,0.203,0.190,0.202,0.112,0.074,�k,5.3,��
2024/04/13,10:00,0.142,0.124,0.202,0.189,0.203,0.111,0.074,�k,5.7,��
2024/04/13,10:10,0.145,0.124,0.204,0.188,0.203,0.113,0.074,�k,6.6,��
2024/04/13,10:20,0.144,0.124,0.205,0.192,0.202,0.112,0.075,�k�k��,6.2,��
2024/04/13,10:30,0.144,0.124,0.203,0.190,0.204,0.113,0.074,�k�k��,6.4,��
2024/04/13,10:40,0.143,0.124,0.202,0.189,0.203,0.113,0.073,�k�k��,5.8,��
2024/04/13,10:50,0.143,0.125,0.205,0.192,0.202,0.113,0.075,�k�k��,6.0,��
2024/04/13,11:00,0.145,0.124,0.205,0.191,0.203,0.112,0.074,�k�k��,6.1,��
2024/04/13,11:10,0.143,0.123,0.202,0.190,0.202,0.112,0.074,�k�k��,6.4,��
2024/04/13,11:20,0.143,0.125,0.203,0.190,0.203,0.113,0.075,�k�k��,5.5,��
2024/04/13,11:30,0.143,0.125,0.205,0.191,0.205,0.113,0.074,�k,4.4,��
2024/04/13,11:40,0.143,0.124,0.205,0.190,0.202,0.113,0.073,�k�k��,4.8,��
2024/04/13,11:50,0.145,0.125,0.203,0.189,0.202,0.113,0.074,�k�k��,4.1,��
2024/04/13,12:00,0.144,0.124,0.203,0.193,0.205,0.112,0.074,�k,3.7,��
2024/04/13,12:10,0.143,0.126,0.206,0.192,0.202,0.113,0.074,�k�k��,5.2,��
2024/04/13,12:20,0.145,0.125,0.205,0.190,0.203,0.112,0.074,�k,4.0,��
2024/04/13,12:30,0.143,0.124,0.202,0.191,0.203,0.113,0.075,�k�k��,5.3,��
2024/04/13,12:40,0.143,0.125,0.205,0.192,0.203,0.113,0.073,�k�k��,4.0,��
2024/04/13,12:50,0.144,0.124,0.207,0.191,0.205,0.113,0.075,�k�k��,3.9,��
2024/04/13,13:00,0.144,0.124,0.205,0.192,0.203,0.115,0.075,�k��,3.7,��
2024/04/13,13:10,0.145,0.125,0.204,0.192,0.203,0.113,0.074,�k��,3.3,��
2024/04/13,13:20,0.144,0.124,0.205,0.189,0.205,0.112,0.074,�k��,4.0,��
2024/04/13,13:30,0.144,0.125,0.203,0.192,0.202,0.112,0.074,�k��,4.9,��
2024/04/13,13:40,0.145,0.125,0.205,0.191,0.204,0.114,0.074,�k��,4.5,��
2024/04/13,13:50,0.142,0.123,0.205,0.190,0.204,0.112,0.075,�k��,4.6,��
2024/04/13,14:00,0.144,0.126,0.204,0.191,0.202,0.113,0.074,�k��,3.5,��
2024/04/13,14:10,0.145,0.125,0.205,0.193,0.204,0.113,0.074,�k�k��,4.2,��
2024/04/13,14:20,0.144,0.124,0.206,0.191,0.204,0.114,0.075,�k��,3.5,��
2024/04/13,14:30,0.143,0.125,0.204,0.191,0.202,0.113,0.074,�k��,4.9,��
2024/04/13,14:40,0.144,0.126,0.204,0.193,0.202,0.113,0.074,�k��,3.5,��
2024/04/13,14:50,0.143,0.125,0.206,0.192,0.206,0.113,0.075,���k��,2.7,��
2024/04/13,15:00,0.144,0.125,0.205,0.193,0.203,0.112,0.074,���k��,2.9,��
2024/04/13,15:10,0.144,0.125,0.206,0.193,0.205,0.113,0.074,�k��,2.2,��
2024/04/13,15:20,0.143,0.125,0.204,0.192,0.205,0.113,0.074,���k��,2.7,��
2024/04/13,15:30,0.145,0.125,0.207,0.193,0.202,0.112,0.075,���k��,3.5,��
2024/04/13,15:40,0.144,0.125,0.206,0.191,0.206,0.114,0.075,���k��,2.5,��
2024/04/13,15:50,0.144,0.125,0.205,0.193,0.203,0.113,0.075,�k��,3.7,��
2024/04/13,16:00,0.145,0.125,0.206,0.193,0.203,0.113,0.075,���k��,2.7,��
2024/04/13,16:10,0.144,0.126,0.206,0.192,0.205,0.113,0.075,���k��,4.0,��
2024/04/13,16:20,0.144,0.125,0.205,0.193,0.202,0.113,0.074,���k��,2.8,��
2024/04/13,16:30,0.144,0.125,0.207,0.193,0.202,0.114,0.073,�k��,2.7,��
2024/04/13,16:40,0.145,0.126,0.206,0.192,0.205,0.113,0.074,���k��,1.4,��
2024/04/13,16:50,0.144,0.125,0.206,0.193,0.204,0.113,0.074,��,1.2,��
2024/04/13,17:00,0.146,0.125,0.205,0.192,0.205,0.113,0.074,���쓌,1.6,��
2024/04/13,17:10,0.144,0.125,0.207,0.193,0.204,0.114,0.074,��,1.3,��
2024/04/13,17:20,0.144,0.126,0.207,0.192,0.204,0.113,0.074,��,1.2,��
2024/04/13,17:30,0.144,0.125,0.206,0.193,0.205,0.113,0.074,���k��,1.0,��
2024/04/13,17:40,0.145,0.126,0.207,0.192,0.204,0.113,0.075,�쓌,0.7,��
2024/04/13,17:50,0.145,0.125,0.206,0.194,0.205,0.114,0.075,-,CALM,��
2024/04/13,18:00,0.145,0.125,0.207,0.193,0.204,0.113,0.074,��,0.7,��
2024/04/13,18:10,0.144,0.125,0.206,0.193,0.204,0.113,0.074,��,0.8,��
2024/04/13,18:20,0.144,0.125,0.206,0.192,0.204,0.114,0.075,��쓌,0.7,��
2024/04/13,18:30,0.145,0.126,0.206,0.194,0.206,0.113,0.075,-,CALM,��
2024/04/13,18:40,0.145,0.125,0.205,0.192,0.204,0.113,0.074,��,0.6,��
2024/04/13,18:50,0.144,0.125,0.207,0.194,0.205,0.113,0.075,��,0.8,��
2024/04/13,19:00,0.145,0.125,0.205,0.191,0.205,0.113,0.075,��,0.8,��
2024/04/13,19:10,0.144,0.125,0.206,0.192,0.205,0.113,0.075,-,CALM,��
2024/04/13,19:20,0.144,0.125,0.206,0.192,0.205,0.113,0.074,��쓌,1.0,��
2024/04/13,19:30,0.145,0.125,0.205,0.192,0.204,0.114,0.074,��,1.0,��
2024/04/13,19:40,0.144,0.126,0.206,0.192,0.206,0.114,0.074,��쓌,1.4,��
2024/04/13,19:50,0.146,0.126,0.207,0.193,0.204,0.113,0.074,��쓌,1.3,��
2024/04/13,20:00,0.144,0.125,0.206,0.192,0.204,0.114,0.075,��쓌,1.2,��
2024/04/13,20:10,0.145,0.125,0.206,0.192,0.205,0.114,0.074,��,1.4,��
2024/04/13,20:20,0.144,0.126,0.207,0.193,0.203,0.114,0.074,��,2.0,��
2024/04/13,20:30,0.144,0.125,0.204,0.192,0.205,0.114,0.074,��,2.2,��
2024/04/13,20:40,0.145,0.126,0.206,0.193,0.205,0.113,0.074,��,1.8,��
2024/04/13,20:50,0.144,0.125,0.206,0.193,0.205,0.113,0.074,��쐼,2.3,��
2024/04/13,21:00,0.144,0.126,0.207,0.192,0.205,0.114,0.075,��,1.3,��
2024/04/13,21:10,0.145,0.125,0.205,0.192,0.205,0.113,0.075,��,1.1,��
2024/04/13,21:20,0.144,0.125,0.206,0.193,0.205,0.114,0.074,��쐼,1.0,��
2024/04/13,21:30,0.145,0.126,0.205,0.192,0.204,0.113,0.075,��,1.0,��
2024/04/13,21:40,0.145,0.125,0.206,0.193,0.206,0.113,0.074,��쐼,1.6,��
2024/04/13,21:50,0.145,0.125,0.207,0.193,0.204,0.113,0.074,��쐼,1.4,��
2024/04/13,22:00,0.145,0.125,0.206,0.193,0.205,0.113,0.075,��,1.1,��
2024/04/13,22:10,0.145,0.125,0.206,0.194,0.205,0.114,0.075,��,1.8,��
2024/04/13,22:20,0.145,0.126,0.207,0.193,0.204,0.114,0.075,��쐼,2.0,��
2024/04/13,22:30,0.146,0.126,0.206,0.192,0.206,0.113,0.074,�쐼,1.8,��
2024/04/13,22:40,0.144,0.126,0.206,0.195,0.204,0.115,0.074,��쐼,1.7,��
2024/04/13,22:50,0.146,0.126,0.207,0.193,0.204,0.113,0.074,��,1.5,��
2024/04/13,23:00,0.146,0.125,0.207,0.193,0.205,0.114,0.075,�쐼,1.7,��
2024/04/13,23:10,0.145,0.126,0.207,0.193,0.205,0.113,0.075,�쐼,1.2,��
2024/04/13,23:20,0.144,0.125,0.207,0.193,0.206,0.114,0.076,�쐼,1.0,��
2024/04/13,23:30,0.144,0.125,0.206,0.193,0.204,0.114,0.075,��쐼,0.7,��
2024/04/13,23:40,0.145,0.126,0.206,0.193,0.204,0.114,0.075,��쐼,1.2,��
2024/04/13,23:50,0.146,0.125,0.206,0.193,0.205,0.114,0.075,��,0.9,��
